Lid_Strength_Index
1 1 1 1 0 0 0 0 1 1 1 2 2 2 1 0 0 0 0 1 1 1 1 1 1 1 2 2 3 3 4 5 7 6 5 4 4 4 4 4 4 4 4
1 1 1 1 1 1 1 0 0 1 1 2 2 2 1 0 0 1 1 1 1 1 1 1 2 2 2 2 4 4 4 5 6 7 5 5 5 4 4 5 5 4 5
1 1 1 1 1 1 1 0 0 1 1 1 1 1 0 0 1 1 1 1 1 1 1 1 2 2 3 3 3 4 4 4 4 6 6 5 5 4 5 5 5 5 4
1 1 1 1 1 1 0 0 1 1 1 1 0 0 0 1 1 1 1 1 1 1 1 1 2 2 3 4 4 4 5 5 6 6 6 6 5 4 5 6 7 6 6
1 1 1 1 1 0 0 1 1 1 2 1 0 0 0 1 2 1 1 1 1 2 2 1 2 1 1 2 4 5 5 7 7 7 7 7 7 6 6 6 7 6 6
1 2 1 1 1 1 1 1 1 1 1 0 0 1 1 1 4 2 2 1 1 2 3 2 2 2 2 3 3 4 5 7 7 7 7 8 7 7 6 7 7 8 9
1 1 1 1 1 1 1 1 1 2 1 0 1 1 1 0 4 4 4 2 2 3 2 2 3 4 3 4 4 5 5 5 5 6 7 7 7 7 7 8 8 8 8
2 1 1 1 1 1 1 1 1 1 1 1 1 1 1 1 5 5 4 2 2 2 2 3 4 5 6 7 7 7 7 6 6 6 6 5 6 6 7 8 8 8 7
2 2 1 1 2 2 2 2 1 0 1 1 1 1 1 1 6 6 4 2 2 3 3 4 6 7 8 8 8 8 8 7 6 5 6 6 7 7 7 8 9 9 10
2 2 1 2 1 2 2 1 1 0 1 1 1 1 1 1 5 6 4 3 5 6 7 7 7 7 8 8 9 9 9 9 8 7 7 7 6 6 6 7 8 9 10
1 1 2 2 2 2 1 0 0 1 1 1 1 1 1 1 4 6 6 6 7 9 9 9 7 8 8 8 8 8 9 8 8 8 7 7 7 7 7 7 7 8 9
1 2 3 3 3 3 1 0 0 1 2 2 2 1 2 3 5 6 7 8 9 10 9 9 8 9 8 8 7 8 8 7 8 8 8 8 8 8 8 7 7 6 6
2 3 3 2 3 2 2 1 2 1 2 2 3 4 3 3 4 7 8 10 10 10 10 8 8 8 8 8 8 7 7 7 8 9 9 9 8 8 7 8 6 6 5
3 3 3 3 4 4 2 1 1 1 2 3 4 4 4 4 7 7 10 10 10 10 9 8 7 8 8 7 8 9 7 8 8 9 9 8 8 8 9 8 8 7 7
3 3 4 5 5 3 1 2 1 0 3 3 4 5 6 8 9 12 12 12 11 10 9 8 9 9 9 9 9 10 9 8 8 8 8 8 9 9 9 8 8 7 7
4 4 6 6 3 2 3 1 6 6 8 9 9 8 7 9 12 12 12 12 12 11 9 10 10 10 11 11 11 11 10 9 9 9 8 8 10 10 10 9 8 8 6
4 4 4 6 3 3 2 2 3 6 8 7 9 9 9 12 13 13 13 13 12 11 11 11 11 11 12 11 11 11 11 10 10 10 10 10 10 10 10 9 8 7 7
6 9 5 2 2 3 2 2 3 4 5 6 9 8 10 13 13 13 13 12 12 11 11 11 11 11 11 12 11 12 12 11 11 10 11 10 10 10 10 9 8 8 8
3 3 2 2 2 3 3 3 3 3 4 4 5 9 11 12 13 13 13 12 12 12 12 11 11 11 11 11 11 12 12 11 11 10 10 11 10 10 10 9 9 10 9
5 8 6 4 4 4 4 3 3 4 5 5 7 10 11 12 13 13 13 13 12 12 11 11 11 11 11 12 11 12 12 11 10 10 11 10 10 9 9 9 8 7 7
5 4 10 4 5 4 3 3 3 5 6 6 7 11 15 13 13 13 13 13 12 11 11 10 10 11 10 11 11 12 11 11 10 10 10 10 10 9 9 8 8 6 6
6 4 5 5 4 3 3 3 4 5 6 7 8 11 14 13 13 13 13 13 12 10 9 9 9 10 10 11 11 11 11 10 10 10 10 9 9 9 9 8 6 6 6
4 5 5 4 3 6 3 3 5 6 6 7 9 11 13 13 13 13 13 13 12 10 8 8 8 9 10 10 10 9 10 10 10 9 9 9 9 9 8 7 7 7 7
4 5 5 4 4 3 3 4 5 8 7 8 10 11 13 13 13 13 13 12 11 9 7 7 8 8 8 9 9 9 9 10 8 8 8 9 8 8 6 6 6 7 7
5 4 4 4 4 4 4 5 6 6 7 9 10 11 12 13 12 13 12 12 10 8 7 7 7 7 8 8 8 8 11 12 9 10 8 7 7 6 5 5 6 6 6
5 4 4 4 4 4 5 6 6 7 8 9 10 11 12 13 13 13 12 11 10 7 6 6 7 6 7 8 8 11 11 11 9 11 7 5 5 5 5 5 5 6 6